Weather History for Wrangell, AK

Change the Weather History Date:

Friday, February 8, 2013

  Actual Average Record
Temperature  
Mean Temperature 38 °F -  
Max Temperature 39 °F 38 °F 52 °F (1968)
Min Temperature 37 °F 27 °F 8 °F (2008)
Degree Days  
Heating Degree Days 27    
Moisture  
Dew Point 33 °F    
Average Humidity 84    
Maximum Humidity 93    
Minimum Humidity 75    
Precipitation  
Precipitation 0.62 in - - ()
Sea Level Pressure  
Sea Level Pressure 30.01 in    
Wind  
Wind Speed 11 mph (ESE)    
Max Wind Speed 18 mph    
Max Gust Speed 25 mph    
Visibility 8 miles    
Events      
Averages and records for this station are not official NWS values.
T = Trace of Precipitation, MM = Missing Value Source: NWS Daily Summary

Daily Weather History Graph

Daily Weather History Graph

Search for Another Location

Airport:

Trip Planner

Search our weather history database for the weather conditions in past years. The results will help you decide how hot, cold, wet, or windy it might be!

Date:

Astronomy

Feb. 08, 2013 Rise Set
Actual Time 7:30 AM AKST 4:37 PM AKST
Civil Twilight 6:50 AM AKST 5:17 PM AKST
Nautical Twilight 6:05 AM AKST 6:02 PM AKST
Astronomical Twilight 5:22 AM AKST 6:46 PM AKST
Moon 6:13 AM AKST (2/8) 3:13 PM AKST (2/8)
Length of Visible Light 10h 27m
Length of Day
9h 06m
Waning Crescent, 3% of the Moon is Illuminated
Feb 8
Waning Crescent
Feb 9
New
Feb 17
First Quarter
Feb 25
Full
Mar 4
Last Quarter

Hourly Weather History & Observations

Time (AKST) Temp. Windchill Dew Point Humidity Pressure Visibility Wind Dir Wind Speed Gust Speed Precip Events Conditions
12:16 AM 37.4 °F 28.9 °F 32.0 °F 81% 30.01 in 10.0 mi ESE 13.8 mph 18.4 mph 0.03 in   Overcast
12:36 AM 37.4 °F 28.5 °F 32.0 °F 81% 30.01 in 10.0 mi ESE 15.0 mph 21.9 mph 0.05 in   Overcast
12:56 AM 37.4 °F 30.3 °F 32.0 °F 81% 30.01 in 10.0 mi ESE 10.4 mph 16.1 mph 0.06 in   Overcast
1:16 AM 37.4 °F 28.9 °F 30.2 °F 75% 30.00 in 10.0 mi ESE 13.8 mph - 0.02 in   Overcast
1:36 AM 37.4 °F 28.5 °F 32.0 °F 81% 29.99 in 10.0 mi ESE 15.0 mph 20.7 mph 0.04 in   Overcast
1:56 AM 37.4 °F 28.2 °F 32.0 °F 81% 29.99 in 10.0 mi ESE 16.1 mph 23.0 mph 0.05 in   Overcast
2:16 AM 37.4 °F 28.5 °F 32.0 °F 81% 29.99 in 9.0 mi ESE 15.0 mph 21.9 mph 0.01 in   Overcast
2:36 AM 37.4 °F 28.5 °F 32.0 °F 81% 29.98 in 10.0 mi ESE 15.0 mph 21.9 mph 0.01 in   Overcast
2:56 AM 37.4 °F 28.2 °F 32.0 °F 81% 29.98 in 9.0 mi ESE 16.1 mph 24.2 mph 0.02 in   Overcast
3:16 AM 37.4 °F 28.2 °F 32.0 °F 81% 29.97 in 7.0 mi ESE 16.1 mph 25.3 mph 0.01 in   Overcast
3:36 AM 37.4 °F 28.2 °F 30.2 °F 75% 29.96 in 8.0 mi ESE 16.1 mph 25.3 mph 0.02 in   Overcast
3:56 AM 37.4 °F 28.2 °F 32.0 °F 81% 29.96 in 10.0 mi ESE 16.1 mph 24.2 mph 0.03 in   Overcast
4:16 AM 37.4 °F 27.5 °F 32.0 °F 81% 29.95 in 8.0 mi ESE 18.4 mph 25.3 mph 0.01 in   Overcast
4:36 AM 37.4 °F 27.5 °F 30.2 °F 75% 29.95 in 8.0 mi ESE 18.4 mph 25.3 mph 0.02 in   Overcast
4:56 AM 37.4 °F 27.5 °F 32.0 °F 81% 29.94 in 7.0 mi ESE 18.4 mph 25.3 mph 0.03 in   Overcast
5:16 AM 37.4 °F 28.5 °F 32.0 °F 81% 29.95 in 7.0 mi ESE 15.0 mph 24.2 mph 0.02 in   Overcast
5:36 AM 37.4 °F 28.9 °F 30.2 °F 75% 29.94 in 8.0 mi ESE 13.8 mph 20.7 mph 0.04 in   Overcast
5:56 AM 37.4 °F 29.3 °F 32.0 °F 81% 29.94 in 10.0 mi SE 12.7 mph 19.6 mph 0.06 in   Overcast
6:16 AM 39.2 °F 30.5 °F 32.0 °F 75% 29.93 in 10.0 mi SE 16.1 mph 20.7 mph 0.03 in   Overcast
6:36 AM 37.4 °F 28.9 °F 32.0 °F 81% 29.93 in 10.0 mi ESE 13.8 mph 20.7 mph 0.05 in   Overcast
6:56 AM 37.4 °F 29.8 °F 33.8 °F 87% 29.93 in 10.0 mi ESE 11.5 mph 19.6 mph 0.09 in   Overcast
7:16 AM 37.4 °F 29.8 °F 32.0 °F 81% 29.94 in 10.0 mi ESE 11.5 mph 18.4 mph 0.03 in   Overcast
7:36 AM 37.4 °F 30.3 °F 32.0 °F 81% 29.94 in 7.0 mi ESE 10.4 mph 16.1 mph 0.06 in   Overcast
7:56 AM 37.4 °F 32.8 °F 32.0 °F 81% 29.94 in 7.0 mi SE 5.8 mph - 0.08 in   Overcast
8:16 AM 37.4 °F 34.9 °F 32.0 °F 81% 29.94 in 7.0 mi SSE 3.5 mph - 0.02 in   Overcast
8:36 AM 37.4 °F 34.9 °F 32.0 °F 81% 29.95 in 7.0 mi South 3.5 mph - 0.03 in   Overcast
8:56 AM 37.4 °F 34.9 °F 32.0 °F 81% 29.96 in 5.0 mi ESE 3.5 mph - 0.06 in   Overcast
9:16 AM 37.4 °F 32.1 °F 32.0 °F 81% 29.95 in 5.0 mi ESE 6.9 mph - 0.02 in   Overcast
9:36 AM 37.4 °F 32.8 °F 30.2 °F 75% 29.96 in 5.0 mi South 5.8 mph - 0.03 in   Overcast
9:56 AM 37.4 °F 33.8 °F 32.0 °F 81% 29.95 in 5.0 mi SSW 4.6 mph - 0.04 in   Overcast
10:16 AM 37.4 °F 34.9 °F 32.0 °F 81% 29.95 in 5.0 mi WNW 3.5 mph - N/A   Overcast
10:36 AM 37.4 °F 32.8 °F 32.0 °F 81% 29.96 in 5.0 mi SW 5.8 mph - 0.01 in   Overcast
10:56 AM 37.4 °F - 32.0 °F 81% 29.96 in 5.0 mi Calm Calm - 0.01 in   Overcast
11:16 AM 37.4 °F - 32.0 °F 81% 29.96 in 5.0 mi Calm Calm - N/A   Overcast
11:36 AM 37.4 °F 32.1 °F 33.8 °F 87% 29.97 in 5.0 mi West 6.9 mph - 0.01 in   Overcast
11:56 AM 37.4 °F 30.3 °F 33.8 °F 87% 29.97 in 5.0 mi ESE 10.4 mph 18.4 mph 0.01 in   Overcast
12:16 PM 37.4 °F 28.5 °F 33.8 °F 87% 29.97 in 7.0 mi ESE 15.0 mph - N/A   Overcast
12:36 PM 39.2 °F 31.6 °F 33.8 °F 81% 29.97 in 7.0 mi East 12.7 mph 18.4 mph N/A   Overcast
12:56 PM 39.2 °F 32.5 °F 33.8 °F 81% 29.98 in 7.0 mi ESE 10.4 mph 18.4 mph 0.01 in   Overcast
1:16 PM 39.2 °F 37.0 °F 35.6 °F 87% 29.98 in 7.0 mi West 3.5 mph - N/A   Overcast
1:36 PM 39.2 °F 35.9 °F 33.8 °F 81% 29.99 in 10.0 mi NW 4.6 mph - 0.01 in   Overcast
1:56 PM 39.2 °F 30.8 °F 33.8 °F 81% 29.97 in 7.0 mi ESE 15.0 mph - 0.01 in   Overcast
2:16 PM 39.2 °F 35.0 °F 33.8 °F 81% 29.98 in 7.0 mi SE 5.8 mph 17.3 mph N/A   Overcast
2:36 PM 39.2 °F - 33.8 °F 81% 29.99 in 7.0 mi Calm Calm - N/A   Overcast
2:56 PM 39.2 °F 35.0 °F 33.8 °F 81% 29.98 in 10.0 mi SE 5.8 mph - N/A   Overcast
3:16 PM 39.2 °F 35.0 °F 33.8 °F 81% 30.00 in 10.0 mi SW 5.8 mph - 0.01 in   Overcast
3:36 PM 39.2 °F - 33.8 °F 81% 30.01 in 10.0 mi Calm Calm - 0.03 in   Overcast
3:56 PM 39.2 °F 37.0 °F 35.6 °F 87% 30.01 in 10.0 mi SE 3.5 mph - 0.05 in   Overcast
4:16 PM 39.2 °F - 35.6 °F 87% 30.02 in 10.0 mi Calm Calm - N/A   Overcast
4:36 PM 39.2 °F 33.0 °F 33.8 °F 81% 30.02 in 10.0 mi ESE 9.2 mph - N/A   Overcast
4:56 PM 37.4 °F 30.8 °F 35.6 °F 93% 30.03 in 10.0 mi East 9.2 mph - 0.01 in   Overcast
5:16 PM 37.4 °F 30.3 °F 35.6 °F 93% 30.04 in 10.0 mi ESE 10.4 mph - N/A   Overcast
5:36 PM 39.2 °F 33.6 °F 33.8 °F 81% 30.05 in 10.0 mi SE 8.1 mph - N/A   Overcast
5:56 PM 37.4 °F 30.3 °F 35.6 °F 93% 30.05 in 10.0 mi East 10.4 mph - N/A   Overcast
6:16 PM 37.4 °F 31.4 °F 35.6 °F 93% 30.05 in 10.0 mi East 8.1 mph - N/A   Overcast
6:36 PM 37.4 °F 30.8 °F 35.6 °F 93% 30.06 in 10.0 mi ESE 9.2 mph - N/A   Overcast
6:56 PM 37.4 °F 30.3 °F 33.8 °F 87% 30.06 in 10.0 mi ESE 10.4 mph - N/A   Overcast
7:16 PM 37.4 °F 29.8 °F 33.8 °F 87% 30.07 in 10.0 mi ESE 11.5 mph 16.1 mph N/A   Overcast
7:36 PM 37.4 °F 28.9 °F 35.6 °F 93% 30.07 in 10.0 mi East 13.8 mph - N/A   Overcast
7:56 PM 37.4 °F 30.3 °F 35.6 °F 93% 30.08 in 10.0 mi ESE 10.4 mph - N/A   Overcast
8:16 PM 37.4 °F 31.4 °F 35.6 °F 93% 30.09 in 10.0 mi ESE 8.1 mph - N/A   Overcast
8:36 PM 37.4 °F 31.4 °F 35.6 °F 93% 30.10 in 10.0 mi East 8.1 mph - N/A   Overcast
8:56 PM 39.2 °F 34.2 °F 35.6 °F 87% 30.11 in 10.0 mi SE 6.9 mph - N/A   Overcast
9:16 PM 39.2 °F 32.0 °F 35.6 °F 87% 30.11 in 10.0 mi East 11.5 mph - N/A   Overcast
9:36 PM 39.2 °F 32.0 °F 35.6 °F 87% 30.12 in 10.0 mi East 11.5 mph - N/A   Overcast
9:56 PM 37.4 °F 31.4 °F 35.6 °F 93% 30.13 in 9.0 mi East 8.1 mph - N/A   Overcast
10:16 PM 37.4 °F 30.3 °F 35.6 °F 93% 30.13 in 9.0 mi ESE 10.4 mph - N/A   Overcast
10:36 PM 37.4 °F 30.3 °F 35.6 °F 93% 30.14 in 9.0 mi ESE 10.4 mph - N/A   Overcast
10:56 PM 37.4 °F 31.4 °F 33.8 °F 87% 30.15 in 9.0 mi ESE 8.1 mph - N/A   Overcast
11:16 PM 37.4 °F 31.4 °F 35.6 °F 93% 30.16 in 10.0 mi ESE 8.1 mph - N/A   Scattered Clouds
11:36 PM 37.4 °F 32.1 °F 35.6 °F 93% 30.17 in 10.0 mi SE 6.9 mph - N/A   Scattered Clouds
11:56 PM 37.4 °F 32.1 °F 33.8 °F 87% 30.18 in 10.0 mi ESE 6.9 mph - N/A   Mostly Cloudy